User: anonymous
Location: Unspecified
(0.0000°N, 0.0000°E)
Time: 09:58:35
(UTC+00:00)
Language:

Vela 2A - Orbit

View from above orbital plane
View from above orbital plane
View from above satellite
View from above satellite

Ground track
Ground track

The orbit data is extracted from the following two-line orbital elements,

1 00836U 64040A   14263.32344832  .00000103  00000-0  00000+0 0  5221
2 00836 082.2878 326.0658 3315400 263.2992 000.4726 00.23912186 43832
Epoch (UTC): 20 September 2014 07:45:45
Eccentricity: 0.3315400
inclination: 82.2878°
perigee height: 66914 km
apogee height: 139617 km
right ascension of ascending node: 326.0658°
argument of perigee: 263.2992°
revolutions per day: 0.23912186
mean anomaly at epoch: 0.4726°
orbit number at epoch: 4383

The dashed part of the orbit path shows where the satellite is in the earth's shadow,  

DLR